STARLINK-32417, 61673

Orbit data source: Space-Track

STARLINK-32417, 61673 is a payload satellite owned by SpaceX/Seattle (US) in LEO that was launched on Sat, 26 Oct 2024 UTC via an FALCON 9 launch vehicle from the Air Force Eastern Test Range (AFETR). Payload-class satellites include a variety of spacecraft equipped with specific instruments for various scientific and technological missions. These include communications satellites like Starlink; space stations such as the ISS; scientific satellites like the Hubble; Earth observation satellites from companies like Planet Labs, Umbra, and HawkEye 360; GPS; miniature CubeSats for education and research; and military/defense satellites.

Loading next visibility...
Identifier
61673, 2024-193N
Orbit
LEO
Country
Flag of USUS
Related business
Manufacturer
SpaceX/Seattle
Mission
Operational Commercial Communications
Bus & Motor
STARLINK V2M, Unknown motor
Mass
730 kg wet, ~700 kg dry
Launch date (UTC)
2024-10-26 (1 year ago)
Launch vehicle
FALCON 9
Launch site
Air Force Eastern Test Range (AFETR)
Object type
Payload
Rocket body
Debris
Shape & HBR
Box + 2 Pan, 17.7 m
Radar Cross Section
33.884 m², Large (>1 m²)

Expand to show TLE details & history
Last TLE update: 22 hours ago

TLE from 22 hours ago
0 STARLINK-32417
1 61673U 24193N   25340.77735786  .00002614  00000-0  10037-3 0  9993
2 61673  53.1616 162.4159 0001384  81.6655 278.4503 15.30191017 62300
Epoch: 2025-12-06T18:39Z
TLE epoch observation values (Epoch: 2025-12-06T18:39:23.719Z)
Latitude
0.00002°
Longitude
166.76686°
Altitude
476.003 km
Speed
7.629 km/s
True Right ascension
10h 49m 39s
True Declination
0° 00' 00"
Sunlit
Object was in daylight at epoch
Visualization orbit readout
Latitude
Unknown
Longitude
Unknown
Altitude
Unknown
Speed
Unknown
Apparent Right ascension
Unknown
Apparent Declination
Unknown
Sunlit
N/A
Visualization observer readout
Local Sidereal Time
15:14:48
Azimuth
Unknown
Elevation
Unknown
Doppler factor
Unknown
Orbital elements
Apogee altitude
476.447 km
Perigee altitude
474.55 km
Semi-major axis
6,853.635 km
Eccentricity
0.00014
Inclination
53.1616°
RAAN
162.4159°
Arg. of periapsis
81.6655°
True anomaly
278.43461°
Mean anomaly
278.4503°
Eccentric anomaly
278.44246°
Mean motion
3.82527 °/min
Orbital period
94.11 mins
BSTAR
0.00010037
Loading maneuver chart data...
Computing Atmospheric mass density...
Loading historical data...
Loading historical data...
Loading historical data...
Loading historical data...
Loading historical data...
Loading historical data...
Loading historical data...

Documentation

Showing up to 5 results
|